Regional Weather Roundup
Issued by NWS Jackson, KY

Home | Current Version | Previous Version | Graphics & Text | Print | Product List | Glossary On
Versions: 1 2 3 4 5 6 7 8 9 10 11 12 13 14 15 16 17 18 19 20 21 22 23 24 25 26 27 28 29 30 31 32 33 34 35 36 37 38 39 40 41 42 43 44 45 46 47 48 49 50
000
ASUS43 KJKL 301610
RWRJKL

EAST KENTUCKY HOURLY WEATHER ROUNDUP
NATIONAL WEATHER SERVICE JACKSON KY
1200 PM EDT FRI SEP 30 2016

NOTE: "FAIR" INDICATES FEW OR NO CLOUDS BELOW 12,000 FEET WITH
NO SIGNIFICANT WEATHER AND/OR OBSTRUCTIONS TO VISIBILITY.

* THESE REPORTS ARE NOT UNDER NWS QUALITY CONTROL AND MAY NOT
  REPORT WEATHER SUCH AS PRECIPITATION AND FOG.

KYZ079-080-083-085-087-088-110-112-115-119-120-301700
...EASTERN KENTUCKY...

CITY           SKY/WX    TMP DP  RH WIND       PRES   REMARKS
JACKSON        CLOUDY    56  53  90 VRB3      30.05F
LONDON         CLOUDY    53  49  86 CALM      30.07S
SOMERSET*      CLOUDY    54  52  94 SW6       30.08S
MONTICELLO*    CLOUDY    58  52  80 N8        30.08R
WILLIAMSBURG*  CLOUDY    50  50 100 CALM      30.07F
MIDDLESBORO*   SUNNY     62  50  66 CALM      30.06F
HARLAN APT*    CLOUDY    57  48  72 SW5       30.06F
PIKE CO APT*   CLOUDY    56  56 100 CALM      30.06S
BIG SANDY APT* CLOUDY    57  57  99 W3        30.05S
MOREHEAD APT*  CLOUDY    55  54  94 W3        30.07S FOG
ASHLAND*       CLOUDY    61  57  88 W5        30.02S
$$

KYZ035-036-041-042-044-050-067-078-099-301700
...CENTRAL KENTUCKY...

CITY           SKY/WX    TMP DP  RH WIND       PRES   REMARKS
MT STERLING*   CLOUDY    55  52  88 CALM      30.07S
FLEMING/MASON* CLOUDY    58  54  88 SW6       30.06S
DANVILLE*      CLOUDY    55  52  88 SW5       30.07S
LEXINGTON      CLOUDY    57  53  86 W5        30.06S
FRANKFORT      PTSUNNY   60  51  72 CALM      30.04S
LOUISVILLE     CLOUDY    58  53  84 E3        30.05S
LEBANON*         N/A     55  54  94 MISG      30.06S
GLASGOW*       HVY RAIN  52  52 100 S3        30.06F
BOWLING GREEN  CLOUDY    58  55  90 SW8       30.05F
$$

KYZ091>093-OHZ055-061-077-WVZ005-015-034-035-042-301700
...SOUTHERN OHIO/WEST VIRGINIA...

CITY           SKY/WX    TMP DP  RH WIND       PRES   REMARKS
COVINGTON      CLOUDY    62  57  83 VRB3      30.03F
COLUMBUS       TSTM      61  61 100 SW3       30.07R VSB 1
DAYTON         CLOUDY    62  60  93 E7        30.05R
WILMINGTON     LGT RAIN  60  59  96 CALM      30.03S
HUNTINGTON     LGT RAIN  60  57  89 SW5       30.03S FOG
CHARLESTON     PTSUNNY   69  60  73 CALM      30.01F
PINEVILLE*     CLOUDY    62  57  84 MISG      30.08R
BECKLEY        PTSUNNY   66  60  81 SE7G18    30.05S
BLUEFIELD      PTSUNNY   65  56  72 SE8       30.05S
LOGAN CO APT*  FOG       57  57 100 CALM      30.04R VSB 1/4
$$

VAZ002-007-008-TNZ017-027-036-066-071-301700
...SOUTHWEST VIRGINIA/EAST TENNESSEE...

CITY           SKY/WX    TMP DP  RH WIND       PRES   REMARKS
WISE*          CLOUDY    55  54  94 W6        30.07S
JONESVILLE*    CLOUDY    61  50  67 CALM      30.08F
ABINGDON*      CLOUDY    59  57  92 W5        30.06S
BRISTOL        CLOUDY    60  53  77 W9        30.05S
MORRISTOWN*    CLOUDY    63  48  59 NW6       30.04S
SEVIERVILLE*   MOSUNNY   64  46  52 CALM      30.05S
KNOXVILLE      MOSUNNY   63  51  65 VRB6      30.05F
OAK RIDGE      SUNNY     65  48  54 VRB3      30.07F
CROSSVILLE     MOSUNNY   59  47  64 VRB5      30.08F
NASHVILLE      CLOUDY    62  54  74 SW8       30.08S
$$

...KEY TO REMARKS...
VSB - VISIBILITY IN MILES
WCI - WIND CHILL INDEX
HX  - HEAT INDEX

$$



USA.gov is the U.S. government's official web portal to all federal, state and local government web resources and services.